Flag for Canada Weather past 2 weeks in London, Ontario, Canada

Now
48 °F

Light fog.


Feels Like: 48 °F
Forecast: 48 / 75 °F
Wind: No wind

Location: London Weather Station

Current Time: Jul 25, 2014 at 7:54:42 AM

Latest Report: Jul 25, 2014 at 7:00 AM


Visibility: 15 mi

Pressure: 30.10 "Hg

Humidity: 100%

Dew point: 48 °F

Location of LondonLocation

Historic Weather in London — Graph

°F

London temperature yesterday

Maximum temperature yesterday: 72 °F (at 4:00 PM)
Minimum temperature yesterday: 54 °F (at 5:00 AM)
Average temperature yesterday: 62 °F

Past Weeks' High & Low Weather Summary

 TemperatureHumidityPressure
High82 °F (Jul 21, 5:00 PM)100% (Jul 11, 3:00 AM)30.26 "Hg (Jul 11, 3:00 AM)
Low48 °F (Jul 17, 5:00 AM)43% (Jul 17, 1:00 PM)29.66 "Hg (Jul 15, 6:00 AM)
Average66 °F79%30.03 "Hg
* Reported Jul 10 6:00 AM — Jul 25 6:00 AM, London, Weather by CustomWeather, © 2014

Note: Actual official high and low records may vary slightly from our data, if they occured in-between our weather recording intervals... More about our weather records

Advertising

London weather history for previous 24 hours

 ConditionsComfort  
Time TempWeatherWind HumidityBarometerVisibility
6:00 AM
Jul 25
50 °FClear.No wind100%30.09 "Hg15 mi
5:54 AM50 °FClear.No wind94%30.08 "Hg15 mi
5:00 AM52 °FClear.3 mph94%30.06 "Hg15 mi
4:00 AM50 °FClear.2 mph94%30.05 "Hg15 mi
3:00 AM50 °FClear.No wind100%30.05 "Hg15 mi
2:00 AM52 °FClear.No wind100%30.05 "Hg15 mi
1:00 AM52 °FClear.2 mph94%30.06 "Hg15 mi
12:00 AM55 °FPassing clouds.3 mph88%30.08 "Hg15 mi
11:00 PM
Jul 24
57 °FClear.6 mph82%30.07 "Hg15 mi
10:00 PM59 °FPassing clouds.5 mph77%30.06 "Hg15 mi
9:00 PM63 °FPassing clouds.7 mph68%30.05 "Hg15 mi
8:00 PM66 °FPassing clouds.6 mph64%30.03 "Hg15 mi
7:00 PM68 °FPassing clouds.8 mph60%30.03 "Hg15 mi
6:00 PM70 °FPassing clouds.9 mph57%30.04 "Hg15 mi
5:00 PM70 °FScattered clouds.12 mph60%30.06 "Hg15 mi
4:00 PM72 °FPartly sunny.9 mph57%30.07 "Hg15 mi
3:00 PM68 °FPartly sunny.9 mph64%30.08 "Hg15 mi
2:00 PM70 °FPartly sunny.10 mph53%30.08 "Hg15 mi
1:00 PM68 °FPartly sunny.12 mph53%30.10 "Hg15 mi
12:00 PM68 °FPartly sunny.14 mph53%30.11 "Hg15 mi
11:00 AM68 °FPartly sunny.10 mph53%30.11 "Hg15 mi
10:00 AM64 °FPassing clouds.14 mph52%30.11 "Hg15 mi
9:00 AM63 °FPassing clouds.8 mph68%30.10 "Hg15 mi
8:00 AM57 °FPassing clouds.6 mph82%30.10 "Hg15 mi
7:00 AM54 °FPassing clouds.3 mph88%30.08 "Hg15 mi
Weather by CustomWeather, © 2014

See weather overviewHow to use our weather pages